Погода в Армавире

Погода в Армавире : погода сейчас, прогноз погоды и архив. Всё, что Вы хотите узнать о погоде в Армавире!

Поиск расширенной информации на нашем сайте:

Полезная информация: Смотрите http://www.findom.net запчасти экскаватор хитачи екатеринбург.
купить ванну уссурийск, gani.

Другие новости

Новости СМИ2

Главная страница сайта

Новости сайта

02.10.2013

Напоминаем, что на нашем новом сайте вы можете получить высокодетализированные прогнозы погоды по пунктам России, СНГ и мира (включающие важные для авиации метеовеличины, такие как направление и скорость ветра, видимость, явления погоды, количество и форма облачности, нижняя и верхняя граница облачности), а также ознакомиться с разнообразными материалами по авиационной метеорологии и подборкой полезных ссылок на эту тему.

Сайт Метеоцентр.Азия посвящён разработке технологий оптимизации авиаметеорологического обслуживания, включая проектирование и перспективное создание нескольких автоматизированных авиаметеорологических систем:
- система выпуска высокодетальных прогностических карт явлений погоды для нижнего воздушного пространства по России и ближнему зарубежью;
- система верификации прогнозов TAF (выпускаемых синоптиками официальных АМСГ РФ и ближнего зарубежья) и AUTOTAF (выпускаемых сайтом Метеоцентр.Азия) - выявление ошибок, онлайн-сопоставление с фактической погодой METAR, автоматическое внесение коррективов в прогнозы при резком отклонении фактической погоды от прогноза, подсчёт оправдываемости прогнозов по элементам и в целом;
- система обработки, анализа и отображения авиаметеорологической информации для применения провайдерами метеорологической информации.

Рекомендуем: Смотрите здесь запасные части спецтехника хабаровск.

Погода в Армавире - сегодня

Время (UTC), дата Ветер
(°,м/с) 
Видим.   Явления Облачность Т
(°С)
Тd
(°С)
f(%) Тe
(°С)
Pmin
(гПа)
dP
(гПа)
Po
(мм)
O2
(г/м3)
Тmin Tmax R s Состояние
почвы
18 18.01.17 060 (СВ) 10 км    10/10 600 м 
[Sc]
+0.5 -2.3 81 -2  1028.6  0.6  756  304           
21 18.01.17 050 (СВ) 10 км  слаб. ливневой снег  10/8 600 м кучево-дожд., средняя 
[Cb cap|Ac As]
-0.5 -2.5 86 -3  1029  0.3  757  306           
00 19.01.17 050 (СВ) 10 км  слаб. ливневой снег  10/10 600 м кучево-дожд. 
[Cb cap]
-1.6 -3.8 85 -4  1029.8  0.7  757  307           
03 19.01.17 050 (СВ) 10 км  {ливн. осадки}  10/10 600 м 
[Sc]
-2.3 -4.3 86 -4  1030.4  0.5  758  308  -2.3    0.2  <0.5  равномерный
сухой снег
100% 
06 19.01.17 040 (СВ) 10 км  {ливн. осадки}  10/3 600 м средняя 
[Sc|Ac As]
-2.7 -5 84 -5  1031.9  1.4  759  309  -2.7         
09 19.01.17 040 (СВ) 10 км    10/8 600 м верхняя 
[Sc|Ci fib]
-1.6 -5.4 75 -4  1032.2  0.3  759  308           
12 19.01.17 030 (СВ) 10 км    10/10 600 м 
[Sc]
-1.4 -4.8 78 -3  1031.7  -0.4  759  308           
15 19.01.17 050 (СВ) 10 км    10/10 600 м 
[Sc]
-2.6 -5.1 83 -5  1032.4  0.5  759  309    -0.8       
18 19.01.17 080 (В) 10 км    10/4 600 м средняя 
[Sc|Ac und]
-3 -5.6 82 -4  1032.5  0.1  759  310           
21 19.01.17 090 (В) 10 км    3/0 средняя 
[Ac trans]
-4.9 -7.7 81 -4  1032.3  -0.4  759  312           
00 20.01.17 070 (В) 10 км    10/0 средняя 
[Ac und]
-4.3 -7.4 79 -6  1032.3  759  311           
03 20.01.17 070 (В) 10 км    10/10 600 м 
[Sc]
-4.1 -7.3 78 -6  1030.8  -1.4  758  311  -5.1         
06 20.01.17 050 (СВ) 10 км  слаб. снег  10/5 600 м средняя 
[Sc|Ac As]
-4.5 -7.1 82 -4  1031.1  0.2  758  311           
09 20.01.17 280 (З) 10 км  снежные зёрна  10/10 300 м 
[St]
-3.9 -6.8 80 -5  1030.9  0.1  758  311           
12 20.01.17 300 (СЗ) 10 км  {снег}  10/10 300 м 
[St]
-3.8 -6.4 82 -5  1029.1  -1.7  756  310           
15 20.01.17 240 (ЮЗ) 10 км    10/10 600 м 
[Sc]
-4 -6 86 -6  1029.1  756  310    -3.6  0.0     
18 20.01.17 260 (З) 10 км    10/10 600 м 
[Sc]
-4.3 -6 88 -7  1028.9  -0.2  756  310           
21 20.01.17 270 (З) 10 км    10/10 600 м 
[Sc]
-5.6 -7.5 86 -10  1028.6  -0.4  756  312           
00 21.01.17 240 (ЮЗ) 10 км    10/4 600 м средняя, верхняя 
[Sc|Ac trans|Ci]
-6.5 -8.2 88 -10  1028.4  -0.2  756  313           
03 21.01.17 240 (ЮЗ) 10 км    10/10 600 м 
[Sc]
-5 -7 86 -7  1027.2  -1  755  311  -6.6         
06 21.01.17 220 (ЮЗ) 10 км    10/0 средняя, верхняя 
[Ac lent|Ci fib]
-4.8 -7.1 84 -7  1027.4  0.2  755  310           
09 21.01.17 270 (З) 10 км    10/0 средняя, верхняя 
[Ac lent|Ci]
+0.5 -5.7 63 -2  1025.3  -1.7  754  304           
12 21.01.17 280 (З) 7-10{12}  10 км    10/0 средняя, верхняя 
[Ac trans|Cs]
+2.3 -3.1 67 -1  1023.1  -1.9  752  301           
15 21.01.17 280 (З) 6{11}  10 км    10/1 600 м средняя 
[Cu hum|Ac und]
+1.7 -1.8 78 -1  1022.9  -0.2  752  301    +2.6       
18 21.01.17 260 (З) 9-15{16}  10 км    10/10 600 м 
[Sc]
+2.4 -3.1 67 -2  1021.8  -1.1  751  300           
Время (UTC), дата Ветер
(°,м/с) 
Видим.   Явления Облачность Т
(°С)
Тd
(°С)
f(%) Тe
(°С)
Pmin
(гПа)
dP
(гПа)
Po
(мм)
O2
(г/м3)
Тmin Tmax R s Состояние
почвы

Для получения пояснительной информации подведите курсор к названию столбца.

ПОГОДА в Армавире - архив

Всё, что Вы хотите узнать о погоде в Армавире - удобно и подробно!

Выберите нужную дату (начиная с 1 января 2015* года) и нажмите кнопку "Найти".
Будут отображены архивные сводки погоды по пункту Армавир, начиная с указанной даты.


Отображать данные в формате CSV (для использования в таблицах Excel)


Внимание! Наш архив погоды предназначен исключительно для личного некоммерческого использования в познавательных целях. Если Вам необходимы официальные справки о состоянии погоды (для производственных, юридических, коммерческих и т.п. целей), обращайтесь в органы Росгидромета.

*Примечание: данная дата относится к архиву по метеостанциям СССР (Россия, СНГ, Балтия).
Архив по метеостанциям Зарубежной Европы и Азии (кроме Китая) хранится 10 дней, по другим регионам земного шара (Китай, Африка, Америка, Австралия, Океания) - 1 день.

Армавир - район местоположения метеостанции


Название, широта, долгота, высота метеостанции:
Армавир 45°ш. 41.1°д. 159 м над ур. моря [Российская Федерация]

Дополнительная информация

В oтличие oт бoльшинства пoгoдных сайтoв мы публикуем пoдрoбную метеoинфoрмацию в детальнoм прoфессиoнальнoм фoрмате.

Характеристики температуры и влажнoсти вoздуха измеряются на высoте 2 м в тени вдали oт зданий и деревьев.
Скoрoсть ветра измеряется на высoте 10 м (на урoвне рoста челoвека скoрoсть ветра ниже в 1.5-2 раза). Если метеoстанция нахoдится в гoрoде или в лесу, тo скoрoсть ветра занижена на 2-4 м/с пo сравнению с oткрытым местoм. Скoрoсть ветра над акватoриями крупных рек и oзёр, а также на вершинах хoлмoв на 2-5 м/с выше, чем в oбычных услoвиях.
Атмoсфернoе давление в разных тoчках местнoсти мoжет значительнo oтличаться oт давления на метеoстанции, в зависимoсти oт услoвий рельефа (при пoдъёме на 10 м давление пoнижается примернo на 1 мм рт.ст.).